Temperature
28 25 25 25 26 27 27 26 27 28 28 27 26 25 25 25 25 24 24 24 24 23 23 23 23 22 22 22 21 21 21 21 20 20 20 20 20 19 19 19 19 19 19 19
25 25 27 28 28 28 27 26 27 28 28 27 25 25 25 25 25 25 24 24 24 23 23 23 23 22 22 22 21 21 21 21 21 20 20 20 20 19 19 19 19 19 19 19
26 27 29 29 29 28 27 26 27 27 28 27 26 25 24 25 25 25 25 24 24 24 23 23 23 22 22 22 22 21 21 21 21 20 20 20 19 19 19 19 19 19 19 19
27 28 29 29 29 28 27 28 28 28 26 24 25 23 24 24 24 24 24 24 24 24 24 23 23 23 22 22 22 21 21 21 21 20 20 20 20 20 20 19 19 19 19 19
27 28 28 29 29 29 27 28 28 28 26 24 24 23 23 23 23 23 23 24 24 24 24 24 23 23 23 22 22 21 21 21 21 20 20 20 20 20 20 19 19 19 19 19
27 28 29 29 30 29 29 27 26 24 23 23 23 23 22 22 23 24 24 24 24 24 24 24 24 23 23 22 22 22 21 21 21 21 20 20 20 20 20 19 19 19 19 19
27 28 29 29 28 28 27 24 23 23 22 22 22 23 22 24 24 24 24 24 25 24 24 24 24 23 23 22 22 22 21 21 21 21 20 20 20 20 20 19 19 19 19 19
25 26 28 29 28 27 26 24 23 23 23 22 22 22 23 25 25 25 25 25 25 24 24 24 24 24 23 23 22 22 22 21 21 21 21 20 20 20 19 19 19 19 19 19
24 25 28 29 29 28 27 25 23 22 22 22 22 23 24 24 24 24 24 24 24 24 24 24 24 24 23 23 23 22 22 22 21 21 20 20 20 20 20 19 19 19 19 19
25 25 26 28 28 28 26 25 22 22 22 22 22 23 22 23 23 23 23 23 23 24 24 24 24 24 23 23 23 22 22 22 22 21 21 20 20 20 20 19 19 19 19 19
24 24 25 26 27 26 26 25 22 20 21 21 22 22 23 23 23 23 22 23 23 23 23 24 23 24 23 23 23 22 22 22 21 21 21 20 20 20 19 19 19 19 19 19
24 22 23 24 25 27 26 25 22 22 22 20 20 21 24 22 22 23 23 23 24 24 24 23 23 23 23 23 23 22 22 22 21 21 21 20 20 20 19 19 19 19 19 18
24 22 22 23 23 24 25 25 23 21 20 20 20 22 23 22 22 23 23 23 23 23 23 23 23 23 23 23 23 22 22 22 21 21 20 20 20 19 19 19 19 19 18 18
24 21 22 23 23 23 24 25 24 22 20 20 21 21 22 21 21 21 22 23 23 22 22 23 23 23 23 22 22 22 22 21 21 20 20 20 20 19 19 19 19 19 18 18
22 22 23 23 24 25 25 25 25 24 22 21 21 21 21 21 21 22 22 22 22 22 22 22 22 22 22 22 22 21 21 21 20 20 20 20 19 19 19 19 18 18 18 18
20 22 22 23 24 25 25 25 25 24 24 23 22 21 21 22 22 22 22 22 21 21 22 22 22 21 21 21 21 21 21 20 20 20 19 19 19 19 18 18 18 18 18 18
20 20 21 21 23 24 23 24 24 23 23 23 21 21 21 21 21 21 22 22 21 21 21 22 22 21 21 21 21 21 20 20 20 19 19 19 19 18 18 18 18 18 18 18
20 19 18 19 22 22 22 23 24 24 23 22 22 21 21 21 22 22 22 22 21 21 21 22 21 21 21 21 21 20 20 20 19 19 19 18 18 18 18 18 18 18 17 17
19 19 18 18 20 21 22 23 24 23 22 22 22 22 22 22 21 21 22 22 22 22 22 21 21 21 21 20 20 20 20 19 19 18 18 18 18 17 18 18 18 17 17 17
18 18 18 18 20 20 21 23 24 23 21 22 22 21 21 21 19 19 21 22 22 22 21 21 21 20 20 20 20 19 19 19 18 18 18 18 18 17 17 17 17 17 17 17
19 18 18 18 19 20 21 23 23 21 20 21 22 21 21 20 20 21 22 22 21 21 21 21 20 20 20 19 19 19 19 18 18 18 18 17 17 17 17 17 17 17 17 16
18 18 17 17 18 19 21 21 21 20 21 22 22 22 22 22 21 21 21 21 21 20 20 20 20 20 19 19 19 18 18 18 18 17 17 17 17 17 17 17 16 16 16 16
17 17 16 17 18 19 21 21 22 22 21 21 22 22 22 21 21 21 20 20 20 20 20 20 19 19 19 18 18 18 17 17 17 17 17 17 16 16 16 16 16 16 16 16
17 17 16 17 18 19 20 21 22 22 22 22 22 22 22 21 21 20 20 20 20 19 19 19 18 18 18 18 18 17 17 17 17 17 16 16 16 16 16 16 15 15 15 15
17 16 16 16 17 18 19 20 21 21 22 21 21 21 21 21 20 20 20 19 19 19 18 18 18 18 17 17 17 17 16 16 16 16 16 16 16 16 15 15 15 15 15 15
16 16 16 16 17 16 18 19 20 20 21 21 20 20 20 20 20 20 19 19 19 18 18 18 17 17 17 17 16 16 16 16 15 15 15 15 15 15 15 15 15 15 15 15
Wind_Speed
1 3 4 8 7 7 4 5 7 8 4 2 5 7 11 11 10 10 10 10 11 11 9 10 12 12 10 9 9 8 7 7 6 4 3 3 2 2 2 3 5 5 5 5
3 5 11 9 7 5 4 6 7 6 3 3 5 5 7 10 12 12 12 12 12 10 9 11 11 11 11 10 9 9 8 7 6 5 4 3 3 2 2 2 3 5 5 4
8 10 8 6 7 6 6 6 7 6 3 2 5 1 3 4 6 7 8 10 12 14 14 12 11 11 10 10 10 10 8 7 6 5 3 2 1 1 0 1 2 2 4 4
7 9 7 6 7 6 7 8 7 4 0 2 2 2 5 5 5 6 8 9 11 11 11 12 12 12 12 12 10 9 9 8 7 6 5 5 4 3 3 2 2 2 3 3
7 6 5 6 7 5 7 6 4 3 1 1 2 3 6 2 5 8 10 11 11 12 14 14 14 14 13 12 11 9 9 8 7 7 6 6 4 4 2 2 2 2 2 2
9 7 5 6 6 5 4 3 5 5 5 2 3 2 5 5 9 8 9 10 10 12 14 14 13 12 11 11 10 10 10 9 8 7 7 7 6 5 3 3 3 2 1 1
7 7 5 4 4 4 2 5 4 5 4 4 3 2 6 7 8 9 10 10 10 10 13 13 13 12 11 11 11 11 11 10 9 8 8 8 7 6 6 5 4 3 2 2
4 8 6 3 5 6 4 8 7 4 4 4 2 3 7 5 4 4 6 7 8 8 10 13 13 13 12 12 12 12 12 11 10 9 8 7 7 6 5 5 4 5 4 4
6 8 7 5 3 6 2 2 7 7 3 1 3 4 5 2 3 3 4 5 6 7 8 11 11 11 11 11 11 12 12 11 10 9 7 6 7 6 6 5 5 4 4 4
8 5 7 6 3 2 5 5 5 5 4 2 3 2 3 2 2 2 4 5 5 5 5 6 6 8 9 9 9 11 11 12 10 9 8 8 7 7 6 5 4 4 4 3
5 5 6 3 0 3 1 3 4 3 5 6 3 5 5 7 7 6 5 5 5 5 6 4 3 5 7 7 8 9 10 10 10 10 9 8 7 6 6 5 5 4 3 4
4 5 4 7 6 4 5 5 6 4 2 4 4 6 3 4 5 7 7 6 6 6 5 5 4 3 5 6 7 8 9 10 10 9 8 8 7 6 6 6 6 5 5 4
3 5 1 6 6 4 2 2 4 6 4 3 4 5 3 2 2 4 7 6 6 5 4 4 4 3 4 5 6 6 7 9 9 9 8 8 7 7 7 6 6 6 5 4
4 4 7 8 8 4 1 1 2 5 3 3 6 5 3 2 4 4 6 6 7 6 5 4 3 3 3 3 4 5 5 6 7 8 9 8 8 8 8 7 6 6 6 5
5 3 3 4 4 2 2 2 1 3 6 7 7 8 8 8 8 8 7 6 6 5 4 4 4 3 3 2 3 4 4 5 6 7 8 8 8 7 6 6 6 5 5 6
3 3 1 1 1 1 1 2 1 1 2 4 5 4 5 5 5 5 6 7 6 5 4 5 5 5 4 3 3 3 4 5 5 7 7 6 6 6 6 6 5 5 5 4
1 3 2 3 2 3 3 4 2 2 3 6 6 6 4 5 7 9 8 7 7 7 5 5 5 5 4 3 4 4 3 4 5 5 6 6 6 6 6 6 5 5 5 5
5 3 3 2 1 4 8 4 3 2 1 3 5 5 9 9 7 7 8 7 6 5 5 5 5 5 4 3 2 3 3 4 4 4 5 6 5 5 5 5 5 5 4 4
6 7 4 3 3 5 5 3 2 3 2 2 6 7 7 6 5 1 4 6 7 6 6 5 5 5 5 4 3 3 3 3 3 4 4 5 6 6 5 6 6 5 5 4
4 5 5 4 4 5 6 6 3 5 2 3 6 8 7 7 4 4 4 5 5 5 4 5 5 5 5 4 4 4 3 3 2 3 4 4 5 6 7 7 6 5 5 5
3 3 3 4 4 5 6 4 4 4 6 4 5 8 7 5 6 6 5 5 5 5 5 5 6 5 4 4 5 4 3 3 3 2 2 2 4 5 5 5 4 4 4 4
3 3 2 3 3 5 5 3 4 6 3 3 4 6 5 4 5 5 5 5 5 5 4 5 5 4 3 4 5 3 3 3 2 2 1 2 3 4 3 4 4 4 5 5
2 5 5 6 6 6 2 2 3 3 2 2 4 5 7 7 6 5 4 5 5 4 4 4 5 3 2 3 4 4 3 2 1 1 1 2 2 3 2 3 4 4 4 4
3 2 3 1 2 2 1 1 2 2 3 3 5 7 7 6 6 5 5 4 4 4 4 4 5 4 2 2 2 3 3 2 2 1 2 2 2 1 1 2 3 4 4 4
3 2 2 0 3 3 4 3 1 1 2 2 3 5 7 7 5 5 4 4 3 3 3 4 5 5 4 3 2 2 3 3 3 2 2 2 1 1 1 1 1 3 4 6
2 3 3 4 5 2 4 4 2 2 2 3 4 3 4 5 6 5 5 3 3 3 3 3 3 4 3 3 3 2 2 3 3 2 2 2 1 1 1 1 1 3 1 2
Wind_Direction
263 93 239 236 212 209 223 260 270 266 247 149 170 169 177 178 166 173 179 177 176 178 172 172 173 169 165 165 164 167 167 171 162 160 161 164 189 197 201 204 196 190 189 183
4 249 235 235 233 244 243 263 273 286 255 168 172 182 190 180 181 180 182 184 181 178 171 173 173 169 169 170 175 173 174 172 173 173 172 174 177 194 193 193 187 186 181 180
217 241 244 244 250 243 256 241 251 249 310 30 114 16 222 213 185 175 179 184 183 182 179 175 173 172 171 177 181 180 177 173 176 170 156 145 98 59 87 189 200 203 179 174
247 257 261 256 248 213 248 234 233 246 38 287 132 199 260 211 192 188 190 192 191 186 180 177 176 176 180 187 181 176 174 173 175 167 164 167 174 191 211 205 196 199 185 178
253 259 277 272 247 204 229 239 238 255 172 7 14 122 279 220 200 209 205 201 197 189 182 181 182 183 183 184 181 179 172 176 180 174 174 174 182 196 197 183 177 191 202 193
251 260 236 239 259 216 196 41 14 33 64 21 275 155 274 231 209 202 207 206 200 192 187 184 185 180 183 184 181 179 176 183 183 178 178 179 182 183 176 186 188 201 217 225
293 288 265 242 288 299 108 89 28 5 11 261 266 143 250 236 207 192 198 204 196 193 187 183 182 182 183 182 185 185 183 188 187 183 184 186 187 182 188 194 191 189 199 215
240 278 269 252 204 211 209 141 159 190 221 269 311 219 253 252 205 180 182 175 177 182 185 183 185 186 186 184 184 183 185 189 190 189 191 189 185 186 192 188 183 188 200 210
199 250 276 274 231 165 169 175 168 143 154 166 275 277 310 29 73 108 127 135 154 167 174 178 181 180 184 185 186 184 184 187 188 188 185 188 189 187 186 189 187 192 200 204
179 233 280 286 11 23 147 152 89 111 150 226 288 273 243 210 175 123 125 130 135 151 155 167 172 179 184 185 183 182 182 187 187 185 189 193 196 192 186 184 189 190 192 195
157 184 283 326 185 247 37 74 101 119 153 158 208 259 227 198 180 156 149 154 148 155 150 137 154 180 178 181 180 181 185 185 185 188 190 190 191 187 181 185 196 192 185 185
175 150 237 257 249 199 158 156 137 144 235 163 171 253 280 185 171 153 145 150 157 158 144 138 141 152 166 173 178 183 189 190 191 188 185 188 189 183 184 188 198 196 192 194
152 125 181 319 329 348 77 126 134 132 123 147 165 252 318 118 137 157 146 150 152 145 137 133 137 150 160 165 173 180 184 190 188 180 183 188 190 188 191 192 194 194 191 193
135 120 167 205 227 226 247 282 143 113 144 206 209 214 259 192 170 179 166 158 150 150 148 146 153 165 176 176 167 172 181 184 182 180 184 191 197 198 193 191 192 195 191 191
97 140 186 199 202 166 195 232 199 164 187 187 209 197 209 203 188 180 164 151 141 145 150 163 161 160 168 164 160 168 178 180 180 179 187 199 199 192 186 189 193 196 196 197
67 124 94 305 234 86 336 263 226 219 196 177 160 215 229 187 156 156 157 158 160 170 175 174 168 158 162 173 172 169 180 185 176 178 189 192 183 180 185 190 190 192 200 203
94 110 93 261 290 31 285 235 182 247 230 160 179 214 178 159 167 175 175 171 175 181 176 167 158 160 167 177 175 169 181 178 169 176 184 183 181 182 187 187 185 195 204 201
158 132 144 183 76 221 241 233 154 150 227 165 156 163 166 173 178 174 167 166 179 176 173 167 157 156 156 152 141 157 153 160 168 179 185 188 182 191 194 189 195 204 202 201
162 150 142 142 188 249 282 274 206 180 248 171 140 150 157 143 102 139 184 170 174 176 171 165 162 158 149 146 144 123 129 149 167 186 200 197 190 192 196 201 207 203 195 202
87 121 135 142 163 218 245 264 230 129 236 255 143 145 145 124 134 221 205 154 148 150 149 146 142 138 144 155 142 129 134 143 175 206 217 210 196 197 201 206 206 203 194 195
39 56 143 167 193 244 259 288 78 132 230 242 168 154 152 168 189 194 166 145 140 141 145 141 140 145 160 159 140 140 153 187 208 209 217 218 206 202 203 201 196 185 182 179
173 154 185 151 167 242 287 55 146 205 218 180 163 159 151 142 132 138 141 139 134 137 144 146 141 150 159 150 143 150 202 218 192 176 195 230 231 221 206 188 189 179 175 181
175 182 180 176 203 242 267 172 192 166 144 174 160 154 141 136 142 144 146 139 144 155 162 155 147 146 161 160 156 172 221 213 151 140 231 239 236 229 198 188 191 191 188 190
315 40 86 71 278 286 347 46 39 99 143 168 164 157 145 148 156 152 151 157 157 162 159 151 147 153 183 197 177 193 210 186 155 175 249 249 227 228 224 205 198 198 199 200
268 3 46 34 275 343 346 355 20 29 63 119 147 151 150 148 155 151 147 158 167 170 167 159 161 169 185 188 198 204 190 170 178 202 224 242 222 199 228 272 246 221 222 211
238 169 163 221 235 204 259 280 352 40 63 134 130 119 133 147 152 145 150 161 160 161 152 150 157 164 177 177 191 209 189 168 172 203 230 236 238 224 209 212 329 342 285 239
Height
1496 1504 1509 1504 1502 1503 1507 1510 1510 1501 1493 1499 1504 1505 1504 1504 1506 1509 1511 1513 1514 1517 1519 1521 1523 1525 1527 1529 1530 1532 1534 1535 1536 1537 1539 1540 1541 1542 1543 1543 1543 1544 1544 1544
1503 1506 1496 1493 1494 1498 1503 1510 1508 1499 1492 1498 1504 1506 1503 1503 1504 1505 1508 1510 1512 1515 1517 1519 1521 1523 1525 1527 1528 1530 1532 1533 1534 1536 1538 1539 1540 1541 1541 1542 1542 1542 1543 1543
1503 1495 1488 1491 1494 1499 1502 1506 1505 1502 1496 1497 1504 1513 1508 1504 1503 1505 1506 1507 1509 1511 1514 1516 1519 1521 1523 1525 1526 1528 1530 1531 1533 1535 1536 1538 1539 1539 1540 1540 1540 1541 1541 1542
1494 1487 1487 1490 1492 1494 1504 1492 1493 1495 1506 1516 1509 1530 1514 1506 1506 1505 1505 1506 1507 1509 1512 1514 1516 1517 1520 1522 1524 1526 1528 1530 1531 1533 1534 1535 1536 1536 1537 1538 1539 1539 1540 1540
1493 1486 1487 1490 1487 1487 1492 1486 1489 1492 1504 1515 1514 1526 1521 1507 1508 1504 1502 1502 1504 1506 1508 1511 1512 1514 1517 1520 1522 1524 1526 1527 1529 1531 1532 1533 1534 1535 1536 1537 1537 1538 1538 1539
1485 1481 1482 1482 1478 1479 1481 1488 1494 1501 1513 1531 1521 1526 1526 1510 1502 1498 1498 1499 1500 1503 1506 1508 1510 1513 1515 1518 1520 1522 1524 1525 1527 1528 1529 1531 1532 1533 1534 1534 1535 1536 1536 1536
1491 1482 1477 1476 1482 1481 1484 1505 1527 1531 1539 1537 1519 1522 1519 1497 1492 1492 1493 1495 1497 1500 1502 1505 1508 1510 1512 1514 1517 1519 1521 1522 1524 1525 1526 1528 1529 1530 1531 1532 1533 1533 1534 1534
1503 1500 1480 1475 1480 1487 1487 1500 1527 1540 1543 1536 1521 1523 1507 1490 1488 1489 1490 1492 1495 1497 1499 1501 1504 1507 1509 1511 1513 1515 1517 1519 1521 1523 1524 1526 1527 1528 1529 1530 1531 1531 1531 1532
1500 1497 1475 1470 1470 1475 1487 1496 1499 1519 1526 1535 1527 1514 1499 1490 1490 1490 1491 1492 1493 1495 1498 1500 1502 1504 1507 1509 1510 1512 1514 1516 1518 1520 1522 1524 1525 1525 1526 1527 1528 1528 1529 1530
1483 1493 1480 1471 1470 1472 1478 1486 1503 1518 1534 1540 1530 1521 1515 1499 1495 1492 1492 1492 1493 1495 1497 1499 1500 1502 1504 1506 1508 1510 1512 1514 1515 1518 1519 1520 1522 1523 1524 1525 1525 1526 1526 1527
1476 1490 1486 1479 1481 1485 1484 1490 1501 1514 1519 1534 1540 1526 1495 1493 1491 1490 1491 1492 1493 1494 1495 1497 1499 1501 1502 1504 1506 1507 1509 1511 1513 1514 1516 1517 1518 1519 1520 1522 1523 1524 1524 1524
1473 1487 1495 1486 1474 1471 1476 1485 1497 1514 1519 1522 1530 1521 1487 1487 1487 1487 1488 1490 1492 1493 1494 1496 1498 1499 1501 1502 1503 1505 1506 1508 1509 1511 1513 1513 1515 1516 1517 1518 1520 1521 1522 1522
1472 1488 1504 1500 1492 1480 1480 1481 1487 1498 1511 1521 1527 1516 1487 1487 1488 1487 1487 1489 1491 1492 1494 1495 1497 1498 1499 1501 1502 1503 1504 1505 1506 1508 1509 1510 1511 1512 1513 1515 1516 1518 1519 1519
1465 1484 1496 1504 1498 1486 1485 1482 1483 1495 1511 1516 1512 1504 1493 1489 1488 1487 1487 1488 1489 1492 1493 1494 1495 1497 1498 1499 1500 1500 1502 1503 1504 1505 1506 1507 1508 1509 1509 1512 1513 1514 1515 1516
1467 1483 1481 1480 1476 1476 1479 1479 1479 1487 1494 1502 1499 1496 1490 1487 1486 1486 1486 1488 1489 1490 1492 1493 1494 1496 1497 1498 1498 1499 1499 1500 1501 1502 1503 1504 1505 1506 1507 1509 1510 1511 1512 1512
1470 1479 1480 1481 1475 1475 1478 1476 1476 1480 1482 1487 1489 1491 1482 1482 1484 1485 1486 1487 1489 1490 1491 1492 1493 1494 1494 1495 1496 1496 1497 1497 1498 1499 1500 1501 1502 1503 1504 1506 1507 1508 1509 1509
1474 1480 1488 1492 1479 1478 1488 1477 1476 1479 1477 1480 1489 1485 1480 1482 1482 1482 1484 1485 1486 1488 1489 1490 1491 1492 1492 1493 1493 1493 1494 1495 1495 1496 1497 1498 1499 1500 1501 1503 1504 1505 1506 1506
1473 1480 1489 1493 1489 1501 1485 1468 1467 1472 1473 1472 1474 1475 1476 1477 1478 1480 1482 1484 1485 1487 1488 1488 1489 1490 1491 1491 1491 1491 1492 1492 1493 1493 1494 1495 1495 1497 1498 1499 1501 1502 1503 1503
1463 1475 1489 1496 1499 1492 1477 1468 1468 1473 1477 1470 1471 1474 1476 1477 1479 1482 1481 1482 1484 1485 1486 1487 1487 1488 1489 1489 1490 1490 1490 1490 1491 1491 1491 1492 1493 1494 1495 1496 1497 1498 1499 1500
1463 1469 1483 1492 1496 1498 1480 1465 1461 1467 1480 1470 1469 1471 1473 1475 1483 1482 1480 1480 1482 1483 1484 1485 1486 1487 1487 1487 1488 1488 1488 1488 1488 1488 1488 1489 1490 1491 1491 1492 1493 1495 1496 1496
1474 1478 1484 1489 1492 1484 1468 1461 1461 1481 1481 1468 1467 1468 1470 1472 1474 1475 1477 1478 1480 1482 1483 1484 1484 1485 1485 1486 1487 1486 1486 1485 1485 1486 1486 1487 1487 1488 1488 1489 1490 1491 1492 1493
1477 1482 1485 1487 1491 1487 1463 1462 1468 1470 1465 1465 1465 1466 1467 1468 1471 1474 1475 1476 1478 1479 1481 1482 1482 1482 1484 1484 1484 1484 1484 1484 1483 1484 1484 1484 1485 1486 1486 1486 1487 1488 1488 1489
1471 1472 1475 1477 1478 1466 1461 1461 1462 1462 1463 1464 1464 1465 1466 1468 1470 1472 1473 1474 1476 1478 1479 1480 1480 1481 1481 1482 1482 1482 1482 1482 1482 1481 1481 1482 1483 1483 1483 1483 1483 1484 1485 1485
1468 1465 1469 1471 1468 1464 1462 1461 1461 1461 1462 1462 1463 1464 1465 1466 1468 1470 1472 1473 1474 1476 1477 1478 1479 1479 1479 1479 1479 1480 1480 1480 1479 1479 1479 1479 1480 1480 1480 1480 1480 1480 1481 1481
1470 1468 1470 1471 1467 1464 1462 1461 1461 1461 1461 1461 1461 1462 1463 1464 1466 1468 1469 1471 1472 1473 1474 1475 1476 1476 1477 1477 1477 1478 1478 1478 1477 1477 1477 1476 1477 1477 1477 1477 1477 1477 1477 1478
1467 1468 1471 1471 1466 1466 1464 1461 1461 1460 1459 1459 1460 1461 1463 1463 1464 1466 1468 1469 1470 1471 1472 1473 1473 1473 1474 1474 1475 1475 1475 1475 1475 1474 1474 1474 1474 1474 1474 1474 1474 1473 1474 1474